TimeCDT,TemperatureF,Dew PointF,Humidity,Sea Level PressureIn,VisibilityMPH,Wind Direction,Wind SpeedMPH,Gust SpeedMPH,PrecipitationIn,Events,Conditions,WindDirDegrees,DateUTC
12:15 AM,35.6,26.6,70,29.98,10.0,West,3.5,-,N/A,,Clear,270,2013-10-27 05:15:00
12:35 AM,35.6,26.6,70,29.98,10.0,West,4.6,-,N/A,,Partly Cloudy,270,2013-10-27 05:35:00
12:55 AM,35.6,26.6,70,29.98,10.0,West,3.5,-,N/A,,Mostly Cloudy,260,2013-10-27 05:55:00
1:15 AM,37.4,26.6,65,29.97,10.0,WSW,4.6,-,N/A,,Overcast,250,2013-10-27 06:15:00
1:35 AM,37.4,26.6,65,29.97,10.0,West,4.6,-,N/A,,Overcast,260,2013-10-27 06:35:00
1:55 AM,37.4,28.4,70,29.97,10.0,West,4.6,-,N/A,,Overcast,270,2013-10-27 06:55:00
2:15 AM,37.4,28.4,70,29.97,10.0,West,3.5,-,N/A,,Overcast,270,2013-10-27 07:15:00
2:35 AM,37.4,28.4,70,29.97,10.0,West,3.5,-,N/A,,Overcast,260,2013-10-27 07:35:00
2:55 AM,37.4,28.4,70,29.96,10.0,West,3.5,-,N/A,,Overcast,260,2013-10-27 07:55:00
3:15 AM,35.6,28.4,75,29.95,10.0,West,3.5,-,N/A,,Overcast,270,2013-10-27 08:15:00
3:35 AM,35.6,28.4,75,29.95,10.0,Calm,Calm,-,N/A,,Overcast,0,2013-10-27 08:35:00
3:55 AM,35.6,28.4,75,29.95,10.0,WSW,3.5,-,N/A,,Overcast,250,2013-10-27 08:55:00
4:15 AM,35.6,28.4,75,29.94,10.0,WSW,3.5,-,N/A,,Overcast,240,2013-10-27 09:15:00
4:35 AM,37.4,28.4,70,29.94,10.0,WSW,3.5,-,N/A,,Overcast,240,2013-10-27 09:35:00
4:55 AM,37.4,28.4,70,29.94,10.0,WSW,4.6,-,N/A,,Overcast,250,2013-10-27 09:55:00
5:15 AM,37.4,28.4,70,29.94,10.0,Calm,Calm,-,N/A,,Overcast,0,2013-10-27 10:15:00
5:35 AM,35.6,28.4,75,29.93,10.0,Calm,Calm,-,N/A,,Overcast,0,2013-10-27 10:35:00
5:55 AM,35.6,28.4,75,29.94,10.0,Calm,Calm,-,N/A,,Overcast,0,2013-10-27 10:55:00
6:15 AM,35.6,28.4,75,29.94,10.0,Calm,Calm,-,N/A,,Overcast,0,2013-10-27 11:15:00
6:35 AM,35.6,28.4,75,29.93,10.0,SW,4.6,-,N/A,,Overcast,220,2013-10-27 11:35:00
6:55 AM,35.6,28.4,75,29.93,10.0,SW,6.9,-,N/A,,Overcast,230,2013-10-27 11:55:00
7:15 AM,35.6,28.4,75,29.93,10.0,WSW,5.8,-,N/A,,Overcast,240,2013-10-27 12:15:00
7:35 AM,35.6,28.4,75,29.92,10.0,WSW,5.8,-,N/A,,Mostly Cloudy,240,2013-10-27 12:35:00
7:55 AM,35.6,30.2,81,29.92,10.0,SW,6.9,-,N/A,,Mostly Cloudy,230,2013-10-27 12:55:00
8:15 AM,35.6,30.2,81,29.92,10.0,WSW,5.8,-,N/A,,Mostly Cloudy,250,2013-10-27 13:15:00
8:35 AM,37.4,30.2,75,29.92,10.0,West,5.8,-,N/A,,Overcast,280,2013-10-27 13:35:00
8:55 AM,39.2,30.2,70,29.92,10.0,West,8.1,-,N/A,,Overcast,260,2013-10-27 13:55:00
9:15 AM,39.2,30.2,70,29.92,10.0,WSW,6.9,-,N/A,,Overcast,250,2013-10-27 14:15:00
9:35 AM,39.2,30.2,70,29.92,10.0,West,6.9,-,N/A,,Mostly Cloudy,280,2013-10-27 14:35:00
9:55 AM,41.0,30.2,65,29.92,10.0,WSW,9.2,-,N/A,,Mostly Cloudy,240,2013-10-27 14:55:00
10:15 AM,42.8,30.2,61,29.91,10.0,SW,9.2,-,N/A,,Overcast,220,2013-10-27 15:15:00
10:35 AM,42.8,28.4,57,29.91,10.0,WSW,9.2,17.3,N/A,,Overcast,240,2013-10-27 15:35:00
10:55 AM,42.8,30.2,61,29.90,10.0,WSW,10.4,17.3,N/A,,Scattered Clouds,240,2013-10-27 15:55:00
11:15 AM,44.6,30.2,57,29.89,10.0,SW,15.0,23.0,N/A,,Clear,230,2013-10-27 16:15:00
11:35 AM,44.6,30.2,57,29.89,10.0,SW,9.2,21.9,N/A,,Partly Cloudy,230,2013-10-27 16:35:00
11:55 AM,46.4,30.2,53,29.88,10.0,WSW,11.5,17.3,N/A,,Partly Cloudy,250,2013-10-27 16:55:00
12:15 PM,46.4,30.2,53,29.87,10.0,SW,13.8,20.7,N/A,,Clear,230,2013-10-27 17:15:00
12:35 PM,46.4,30.2,53,29.86,10.0,West,10.4,17.3,N/A,,Clear,260,2013-10-27 17:35:00
12:55 PM,46.4,28.4,50,29.85,10.0,West,10.4,16.1,N/A,,Clear,280,2013-10-27 17:55:00
1:15 PM,48.2,28.4,46,29.83,10.0,WSW,10.4,18.4,N/A,,Clear,240,2013-10-27 18:15:00
1:35 PM,46.4,28.4,50,29.83,10.0,SW,12.7,19.6,N/A,,Clear,220,2013-10-27 18:35:00
1:55 PM,48.2,28.4,46,29.81,10.0,WSW,13.8,20.7,N/A,,Clear,240,2013-10-27 18:55:00
2:15 PM,48.2,26.6,43,29.82,10.0,West,10.4,18.4,N/A,,Scattered Clouds,260,2013-10-27 19:15:00
2:35 PM,48.2,28.4,46,29.82,10.0,SW,13.8,18.4,N/A,,Scattered Clouds,230,2013-10-27 19:35:00
2:55 PM,48.2,28.4,46,29.81,10.0,SW,16.1,-,N/A,,Partly Cloudy,220,2013-10-27 19:55:00
3:15 PM,48.2,28.4,46,29.81,10.0,SW,12.7,19.6,N/A,,Clear,230,2013-10-27 20:15:00
3:35 PM,48.2,28.4,46,29.82,10.0,SW,12.7,16.1,N/A,,Clear,230,2013-10-27 20:35:00
3:55 PM,48.2,28.4,46,29.82,10.0,WSW,8.1,16.1,N/A,,Clear,240,2013-10-27 20:55:00
4:15 PM,48.2,28.4,46,29.82,10.0,West,4.6,-,N/A,,Clear,270,2013-10-27 21:15:00
4:35 PM,48.2,30.2,50,29.83,10.0,SW,6.9,-,N/A,,Clear,220,2013-10-27 21:35:00
4:55 PM,48.2,32.0,54,29.83,10.0,SSW,3.5,-,N/A,,Clear,210,2013-10-27 21:55:00
5:15 PM,50.0,32.0,50,29.83,10.0,Calm,Calm,-,N/A,,Clear,0,2013-10-27 22:15:00
5:35 PM,46.4,32.0,57,29.84,10.0,Calm,Calm,-,N/A,,Scattered Clouds,0,2013-10-27 22:35:00
5:55 PM,46.4,32.0,57,29.85,10.0,Calm,Calm,-,N/A,,Mostly Cloudy,0,2013-10-27 22:55:00
6:15 PM,42.8,33.8,70,29.86,10.0,Calm,Calm,-,N/A,,Partly Cloudy,0,2013-10-27 23:15:00
6:35 PM,41.0,33.8,76,29.86,10.0,Calm,Calm,-,N/A,,Clear,0,2013-10-27 23:35:00
6:55 PM,39.2,33.8,81,29.87,10.0,Calm,Calm,-,N/A,,Clear,0,2013-10-27 23:55:00
7:15 PM,39.2,33.8,81,29.88,10.0,Calm,Calm,-,N/A,,Clear,0,2013-10-28 00:15:00
7:35 PM,37.4,32.0,81,29.89,10.0,Calm,Calm,-,N/A,,Partly Cloudy,0,2013-10-28 00:35:00
7:55 PM,37.4,33.8,87,29.90,10.0,Calm,Calm,-,N/A,,Mostly Cloudy,0,2013-10-28 00:55:00
8:15 PM,39.2,33.8,81,29.91,10.0,West,3.5,-,N/A,,Overcast,280,2013-10-28 01:15:00
8:35 PM,42.8,33.8,70,29.93,10.0,North,8.1,-,N/A,,Overcast,350,2013-10-28 01:35:00
8:55 PM,42.8,32.0,66,29.95,10.0,North,10.4,-,N/A,,Overcast,360,2013-10-28 01:55:00
9:15 PM,46.4,32.0,57,29.97,10.0,North,11.5,18.4,N/A,,Overcast,10,2013-10-28 02:15:00
9:35 PM,44.6,30.2,57,29.98,10.0,North,12.7,17.3,N/A,,Overcast,10,2013-10-28 02:35:00
9:55 PM,44.6,30.2,57,30.00,10.0,North,9.2,-,N/A,,Overcast,10,2013-10-28 02:55:00
10:15 PM,42.8,30.2,61,30.01,10.0,North,6.9,-,N/A,,Overcast,360,2013-10-28 03:15:00
10:35 PM,42.8,30.2,61,30.03,10.0,North,6.9,-,N/A,,Overcast,360,2013-10-28 03:35:00
10:55 PM,42.8,30.2,61,30.04,10.0,North,8.1,-,N/A,,Scattered Clouds,350,2013-10-28 03:55:00
11:15 PM,42.8,30.2,61,30.05,10.0,North,6.9,-,N/A,,Scattered Clouds,350,2013-10-28 04:15:00
11:35 PM,42.8,30.2,61,30.06,10.0,North,9.2,-,N/A,,Overcast,360,2013-10-28 04:35:00
11:55 PM,42.8,30.2,61,30.07,10.0,NNE,15.0,21.9,N/A,,Overcast,20,2013-10-28 04:55:00